Вернуться в каталог

STARLINK-35432

АктивенСвязьVLEO
NORAD 66021·PAYLOAD·🇺🇸 United States

Запущен Oct 16, 2025 с Cape Canaveral Space Force Station

Loading…

Ближайшие Пролёты (ближайшие 24 часа)

TLE

СвежийSource: CelesTrak SupGP

Эпоха: Sep 15, 2026, 03:43 UTC

1 66021C 25232S   26258.15534722  .00016841  00000+0  49756-3 0  2582
2 66021  53.1566 302.3637 0001228  89.1439 311.1373 15.34382182    11

Отслеживайте STARLINK-35432 в реальном времени с AllMySat

Download on the App Store